Flag for Jordan Weather past 2 weeks in Zarqa, Jordan

Now
73 °F

Sandstorm.


Feels Like: 75 °F
Forecast: 63 / 83 °F
Wind: 20 mph from Southeast

Location: Amman Airport

Current Time: Mar 27, 2015 at 1:41:02 PM

Latest Report: Mar 27, 2015 at 1:00 PM


Visibility: 3 mi

Pressure: 30.09 "Hg

Humidity: 20%

Dew point: 30 °F

Location of ZarqaLocation

Historic Weather in Zarqa — Graph

°F

Zarqa temperature yesterday

Maximum temperature yesterday: 72 °F (at 2:00 PM)
Minimum temperature yesterday: 50 °F (at 5:00 AM)
Average temperature yesterday: 61 °F

Past Weeks' High & Low Weather Summary

 TemperatureHumidityPressure
High72 °F (Mar 26, 2:00 PM)93% (Mar 23, 4:00 AM)30.18 "Hg (Mar 23, 4:00 AM)
Low39 °F (Mar 23, 5:00 AM)13% (Mar 24, 10:00 AM)29.95 "Hg (Mar 18, 3:00 PM)
Average54 °F57%30.06 "Hg
* Reported Mar 12 11:00 AM — Mar 27 12:00 Noon, Zarqa, Weather by CustomWeather, © 2015

Note: Actual official high and low records may vary slightly from our data, if they occured in-between our weather recording intervals... More about our weather records

Advertising

Zarqa weather history for previous 24 hours

 ConditionsComfort  
Time TempWeatherWind HumidityBarometerVisibility
12:00 PM
Fri, Mar 27
70 °FHaze.14 mph27%30.09 "Hg3 mi
11:00 AM66 °FHaze.17 mph30%30.12 "Hg3 mi
10:00 AM64 °FHaze.13 mph32%30.12 "Hg3 mi
9:00 AM54 °FHaze.10 mph44%30.12 "Hg3 mi
8:00 AM57 °FHaze.7 mph33%30.12 "Hg3 mi
7:00 AM55 °FHaze.7 mph36%30.09 "Hg2 mi
6:00 AM55 °FHaze.No wind36%30.12 "Hg3 mi
5:00 AM57 °FHaze.7 mph31%30.12 "Hg3 mi
4:00 AM57 °FHaze.7 mph31%30.12 "Hg3 mi
1:00 AM59 °FClear.6 mph29%30.12 "Hg4 mi
11:00 PM
Thu, Mar 26
59 °FClear.6 mph34%30.12 "Hg4 mi
10:00 PM61 °FClear.5 mph31%30.09 "Hg4 mi
9:00 PM61 °FClear.6 mph31%30.09 "Hg4 mi
8:00 PM63 °FClear.No wind34%30.09 "Hg4 mi
7:00 PM64 °FClear.3 mph32%30.09 "Hg4 mi
6:00 PM68 °FClear.3 mph28%30.09 "Hg4 mi
5:00 PM68 °FClear.5 mph30%30.09 "Hg4 mi
4:00 PM70 °FClear.5 mph29%30.09 "Hg4 mi
3:00 PM72 °FHaze.13 mph25%30.09 "Hg4 mi
2:00 PM72 °FHaze.8 mph27%30.12 "Hg4 mi
1:00 PM68 °FClear.8 mph28%30.12 "Hg4 mi
Weather by CustomWeather, © 2015

See weather overviewHow to use our weather pages